This is the latest recevied weather packets stored in our database for station/object 4S6DRJ-13. If no packets are shown the sender has not sent any weather packets the latest 10 day(s).
| Time | Temp. | Humidity | Pressure | Rain* | Wind** | Luminosity | Snow |
|---|---|---|---|---|---|---|---|
| 1788156274 | 31.11° C | 67% | 1009.1 hPa | 0 mm | 2.68 m/s, 302° | 1128 W/m² | - |
| 1788156213 | 31.67° C | 66% | 1009.3 hPa | 0 mm | 4.47 m/s, 302° | 891 W/m² | - |
| 1788156152 | 31.67° C | 65% | 1009.2 hPa | 0 mm | 4.02 m/s, 330° | 1129 W/m² | - |
| 1788156091 | 31.67° C | 67% | 1009.2 hPa | 0 mm | 2.24 m/s, 331° | 1121 W/m² | - |
| 1788156030 | 31.67° C | 68% | 1009.4 hPa | 0 mm | 1.79 m/s, 223° | 1118 W/m² | - |
| 1788155970 | 31.67° C | 68% | 1009.2 hPa | 0 mm | 0.89 m/s, 224° | 952 W/m² | - |
| 1788155908 | 31.11° C | 68% | 1009.1 hPa | 0 mm | 1.79 m/s, 320° | 1108 W/m² | - |
| 1788155847 | 31.11° C | 69% | 1009.2 hPa | 0 mm | 1.34 m/s, 319° | 662 W/m² | - |
| 1788155786 | 31.11° C | 69% | 1009.1 hPa | 0 mm | 0.89 m/s, 285° | 1133 W/m² | - |
| 1788155725 | 31.11° C | 68% | 1009.2 hPa | 0 mm | 2.68 m/s, 277° | 699 W/m² | - |
| 1788155664 | 31.11° C | 69% | 1009.2 hPa | 0 mm | 2.68 m/s, 323° | 1130 W/m² | - |
| 1788155603 | 31.11° C | 69% | 1009.2 hPa | 0 mm | 3.13 m/s, 359° | 886 W/m² | - |
| 1788155543 | 31.11° C | 69% | 1009.3 hPa | 0 mm | 2.68 m/s, 321° | 627 W/m² | - |
| 1788155481 | 31.11° C | 69% | 1009.2 hPa | 0 mm | 2.24 m/s, 222° | 1126 W/m² | - |
| 1788155420 | 31.11° C | 69% | 1009.3 hPa | 0 mm | 2.68 m/s, 282° | 1129 W/m² | - |
| 1788155359 | 31.11° C | 71% | 1009.2 hPa | 0 mm | 0.89 m/s, 284° | 955 W/m² | - |
| 1788155298 | 31.11° C | 70% | 1009.4 hPa | 0 mm | 2.24 m/s, 239° | 525 W/m² | - |
| 1788155237 | 31.11° C | 70% | 1009.1 hPa | 0 mm | 1.79 m/s, 273° | 391 W/m² | - |
| 1788155176 | 31.11° C | 70% | 1009.2 hPa | 0 mm | 1.34 m/s, 239° | 377 W/m² | - |
| 1788155115 | 31.11° C | 70% | 1009.1 hPa | 0 mm | 0.89 m/s, 222° | 370 W/m² | - |
| 1788155054 | 31.11° C | 70% | 1009.2 hPa | 0 mm | 1.34 m/s, 336° | 379 W/m² | - |
| 1788154993 | 31.11° C | 70% | 1009.3 hPa | 0 mm | 1.79 m/s, 233° | 445 W/m² | - |
| 1788154933 | 31.11° C | 70% | 1009.3 hPa | 0 mm | 1.34 m/s, 234° | 1135 W/m² | - |
| 1788154871 | 31.11° C | 70% | 1009.2 hPa | 0 mm | 1.34 m/s, 243° | 520 W/m² | - |
| 1788154810 | 31.11° C | 71% | 1009.2 hPa | 0 mm | 0.89 m/s, 221° | 570 W/m² | - |
* Rain latest hour (hover to see other rain measurements)
** Current wind speed in m/s (hover to see current wind gust speed)